Time,TemperatureF,DewpointF,PressureIn,WindDirection,WindDirectionDegrees,WindSpeedMPH,WindSpeedGustMPH,Humidity,HourlyPrecipIn,Conditions,Clouds,dailyrainin,SoftwareType,DateUTC
2013-09-12 00:00:00,72.3,69.8,30.01,NNW,336,4.0,4.0,92,0.00,,,0.01,Wunderground v.1.15,2013-09-12 04:00:00,
2013-09-12 00:05:00,72.3,69.8,30.01,NNW,341,5.0,6.0,92,0.00,,,0.00,Wunderground v.1.15,2013-09-12 04:05:00,
2013-09-12 00:10:00,72.2,69.7,30.00,NW,318,4.0,4.0,92,0.00,,,0.00,Wunderground v.1.15,2013-09-12 04:10:00,
2013-09-12 00:15:00,72.0,69.9,30.00,NW,309,3.0,4.0,93,0.00,,,0.00,Wunderground v.1.15,2013-09-12 04:15:00,
2013-09-12 00:20:00,71.9,69.8,29.99,West,278,3.0,3.0,93,0.00,,,0.00,Wunderground v.1.15,2013-09-12 04:20:00,
2013-09-12 00:25:00,71.8,69.7,30.00,NW,315,3.0,3.0,93,0.00,,,0.00,Wunderground v.1.15,2013-09-12 04:25:00,
2013-09-12 00:35:00,71.9,69.8,29.99,ENE,57,3.0,3.0,93,0.00,,,0.00,Wunderground v.1.15,2013-09-12 04:35:00,
2013-09-12 00:40:00,71.9,69.8,30.00,NNE,13,3.0,4.0,93,0.00,,,0.00,Wunderground v.1.15,2013-09-12 04:40:00,
2013-09-12 00:45:00,71.7,69.9,30.00,NNE,16,4.0,5.0,94,0.00,,,0.01,Wunderground v.1.15,2013-09-12 04:45:00,
2013-09-12 00:50:00,71.6,69.8,30.00,NE,49,5.0,8.0,94,0.00,,,0.01,Wunderground v.1.15,2013-09-12 04:50:00,
2013-09-12 01:00:00,71.8,69.3,30.00,ENE,70,8.0,9.0,92,0.55,,,0.05,Wunderground v.1.15,2013-09-12 05:00:00,
2013-09-12 01:05:00,71.4,69.0,29.99,ENE,63,6.0,9.0,92,0.51,,,0.10,Wunderground v.1.15,2013-09-12 05:05:00,
2013-09-12 01:10:00,71.1,69.0,29.99,WNW,298,5.0,5.0,93,0.24,,,0.12,Wunderground v.1.15,2013-09-12 05:10:00,
2013-09-12 01:15:00,70.7,68.9,29.99,WNW,288,4.0,5.0,94,0.19,,,0.13,Wunderground v.1.15,2013-09-12 05:15:00,
2013-09-12 01:20:00,70.6,68.8,29.98,WNW,283,4.0,4.0,94,0.19,,,0.15,Wunderground v.1.15,2013-09-12 05:20:00,
2013-09-12 01:30:00,70.4,68.9,29.99,WNW,293,4.0,6.0,95,0.05,,,0.15,Wunderground v.1.15,2013-09-12 05:30:00,
2013-09-12 01:35:00,70.4,68.9,29.98,NW,304,6.0,6.0,95,0.00,,,0.15,Wunderground v.1.15,2013-09-12 05:35:00,
2013-09-12 01:40:00,70.4,69.2,29.99,WNW,297,6.0,6.0,96,0.00,,,0.15,Wunderground v.1.15,2013-09-12 05:40:00,
2013-09-12 01:45:00,70.5,69.3,29.99,West,281,6.0,8.0,96,0.00,,,0.15,Wunderground v.1.15,2013-09-12 05:45:00,
2013-09-12 01:50:00,70.5,69.3,29.99,NW,308,6.0,6.0,96,0.00,,,0.15,Wunderground v.1.15,2013-09-12 05:50:00,
2013-09-12 01:55:00,70.6,69.1,29.99,NNW,340,7.0,9.0,95,0.77,,,0.17,Wunderground v.1.15,2013-09-12 05:55:00,
2013-09-12 02:00:00,70.7,69.2,29.99,NNW,328,7.0,8.0,95,0.14,,,0.17,Wunderground v.1.15,2013-09-12 06:00:00,
2013-09-12 02:10:00,70.8,69.0,30.00,NNW,336,10.0,11.0,94,0.06,,,0.18,Wunderground v.1.15,2013-09-12 06:10:00,
2013-09-12 02:15:00,70.7,68.9,30.00,NNE,15,10.0,12.0,94,0.06,,,0.18,Wunderground v.1.15,2013-09-12 06:15:00,
2013-09-12 02:20:00,70.5,68.7,30.00,NW,315,9.0,9.0,94,0.04,,,0.18,Wunderground v.1.15,2013-09-12 06:20:00,
2013-09-12 02:30:00,70.2,68.7,29.99,NW,307,10.0,16.0,95,0.25,,,0.21,Wunderground v.1.15,2013-09-12 06:30:00,
2013-09-12 02:35:00,70.1,68.6,29.99,NW,308,10.0,16.0,95,0.23,,,0.22,Wunderground v.1.15,2013-09-12 06:35:00,
2013-09-12 02:45:00,69.8,68.6,29.98,NW,306,9.0,10.0,96,0.09,,,0.24,Wunderground v.1.15,2013-09-12 06:45:00,
2013-09-12 02:50:00,69.7,68.5,29.99,WNW,287,8.0,8.0,96,0.16,,,0.25,Wunderground v.1.15,2013-09-12 06:50:00,
2013-09-12 02:55:00,69.6,68.4,29.98,North,11,8.0,8.0,96,0.07,,,0.25,Wunderground v.1.15,2013-09-12 06:55:00,
2013-09-12 03:00:00,69.6,68.4,29.98,East,86,8.0,8.0,96,0.04,,,0.25,Wunderground v.1.15,2013-09-12 07:00:00,
2013-09-12 03:10:00,69.5,68.6,29.98,NNW,343,5.0,6.0,97,0.00,,,0.27,Wunderground v.1.15,2013-09-12 07:10:00,
2013-09-12 03:15:00,69.4,68.5,29.98,East,88,5.0,6.0,97,0.13,,,0.28,Wunderground v.1.15,2013-09-12 07:15:00,
2013-09-12 03:25:00,69.4,68.5,29.97,NE,43,4.0,5.0,97,0.08,,,0.29,Wunderground v.1.15,2013-09-12 07:25:00,
2013-09-12 07:10:00,68.4,68.1,29.97,NNW,332,3.0,4.0,99,0.00,,,0.29,Wunderground v.1.15,2013-09-12 11:10:00,
2013-09-12 07:20:00,68.4,68.1,29.97,NW,316,4.0,4.0,99,0.00,,,0.29,Wunderground v.1.15,2013-09-12 11:20:00,
2013-09-12 07:25:00,68.3,68.0,29.97,NNW,343,5.0,6.0,99,0.00,,,0.29,Wunderground v.1.15,2013-09-12 11:25:00,
2013-09-12 07:30:00,68.3,68.0,29.97,NE,49,4.0,6.0,99,0.00,,,0.29,Wunderground v.1.15,2013-09-12 11:30:00,
2013-09-12 07:40:00,68.3,68.0,29.97,NE,46,4.0,4.0,99,0.00,,,0.29,Wunderground v.1.15,2013-09-12 11:40:00,
2013-09-12 07:50:00,68.3,68.0,29.97,North,6,4.0,7.0,99,0.00,,,0.29,Wunderground v.1.15,2013-09-12 11:50:00,
2013-09-12 07:55:00,68.3,68.0,29.97,NNE,18,4.0,7.0,99,0.00,,,0.29,Wunderground v.1.15,2013-09-12 11:55:00,
2013-09-12 08:00:00,68.4,68.1,29.97,NW,304,4.0,4.0,99,0.00,,,0.29,Wunderground v.1.15,2013-09-12 12:00:00,
2013-09-12 08:05:00,68.4,68.1,29.97,North,4,4.0,8.0,99,0.00,,,0.29,Wunderground v.1.15,2013-09-12 12:05:00,
2013-09-12 08:10:00,68.4,68.1,29.97,ENE,61,4.0,9.0,99,0.00,,,0.29,Wunderground v.1.15,2013-09-12 12:10:00,
2013-09-12 08:15:00,68.5,68.2,29.97,NNE,18,4.0,9.0,99,0.00,,,0.29,Wunderground v.1.15,2013-09-12 12:15:00,
2013-09-12 08:25:00,68.6,68.3,29.97,NNE,20,3.0,9.0,99,0.00,,,0.29,Wunderground v.1.15,2013-09-12 12:25:00,
2013-09-12 08:30:00,68.6,68.3,29.97,NNE,15,5.0,9.0,99,0.00,,,0.29,Wunderground v.1.15,2013-09-12 12:30:00,
2013-09-12 08:35:00,68.6,68.3,29.96,ENE,72,5.0,9.0,99,0.00,,,0.29,Wunderground v.1.15,2013-09-12 12:35:00,
2013-09-12 08:45:00,68.6,68.3,29.97,ENE,70,4.0,9.0,99,0.00,,,0.29,Wunderground v.1.15,2013-09-12 12:45:00,
2013-09-12 08:50:00,68.7,68.4,29.97,ENE,60,4.0,9.0,99,0.00,,,0.29,Wunderground v.1.15,2013-09-12 12:50:00,
2013-09-12 09:00:00,68.8,68.5,29.97,East,83,4.0,4.0,99,0.00,,,0.29,Wunderground v.1.15,2013-09-12 13:00:00,
2013-09-12 09:05:00,68.8,68.5,29.97,NNE,26,4.0,6.0,99,0.00,,,0.29,Wunderground v.1.15,2013-09-12 13:05:00,
2013-09-12 09:10:00,68.9,68.6,29.97,ENE,70,5.0,5.0,99,0.00,,,0.29,Wunderground v.1.15,2013-09-12 13:10:00,
2013-09-12 09:15:00,69.0,68.7,29.97,ENE,76,3.0,9.0,99,0.00,,,0.29,Wunderground v.1.15,2013-09-12 13:15:00,
2013-09-12 09:20:00,69.0,68.7,29.97,ENE,63,1.0,9.0,99,0.00,,,0.29,Wunderground v.1.15,2013-09-12 13:20:00,
2013-09-12 09:30:00,68.8,68.5,29.98,East,82,1.0,1.0,99,0.00,,,0.29,Wunderground v.1.15,2013-09-12 13:30:00,
2013-09-12 09:35:00,68.8,68.5,29.98,East,86,1.0,9.0,99,0.00,,,0.29,Wunderground v.1.15,2013-09-12 13:35:00,
2013-09-12 09:40:00,68.8,68.2,29.98,East,84,1.0,9.0,98,0.00,,,0.29,Wunderground v.1.15,2013-09-12 13:40:00,
2013-09-12 09:50:00,68.7,67.8,29.98,East,81,4.0,4.0,97,0.00,,,0.29,Wunderground v.1.15,2013-09-12 13:50:00,
2013-09-12 09:55:00,68.8,67.6,29.98,East,82,4.0,9.0,96,0.00,,,0.29,Wunderground v.1.15,2013-09-12 13:55:00,
2013-09-12 10:00:00,68.8,67.6,29.98,East,82,4.0,4.0,96,0.00,,,0.29,Wunderground v.1.15,2013-09-12 14:00:00,
2013-09-12 10:10:00,69.0,67.2,29.98,East,85,3.0,3.0,94,0.00,,,0.29,Wunderground v.1.15,2013-09-12 14:10:00,
2013-09-12 10:15:00,69.2,67.4,29.98,East,85,2.0,3.0,94,0.00,,,0.29,Wunderground v.1.15,2013-09-12 14:15:00,
2013-09-12 10:20:00,69.3,67.5,29.98,East,82,3.0,4.0,94,0.00,,,0.29,Wunderground v.1.15,2013-09-12 14:20:00,
2013-09-12 10:25:00,69.5,67.1,29.98,East,86,3.0,4.0,92,0.00,,,0.29,Wunderground v.1.15,2013-09-12 14:25:00,
2013-09-12 10:30:00,69.9,67.8,29.98,East,81,3.0,3.0,93,0.00,,,0.29,Wunderground v.1.15,2013-09-12 14:30:00,
2013-09-12 10:35:00,70.1,67.0,29.98,East,83,3.0,8.0,90,0.00,,,0.29,Wunderground v.1.15,2013-09-12 14:35:00,
2013-09-12 10:40:00,70.4,67.3,29.98,East,83,3.0,3.0,90,0.00,,,0.29,Wunderground v.1.15,2013-09-12 14:40:00,
2013-09-12 10:50:00,70.9,66.8,29.98,East,81,3.0,3.0,87,0.00,,,0.29,Wunderground v.1.15,2013-09-12 14:50:00,
2013-09-12 10:55:00,71.0,66.6,29.98,East,88,2.0,8.0,86,0.00,,,0.29,Wunderground v.1.15,2013-09-12 14:55:00,
2013-09-12 11:00:00,71.0,66.6,29.98,East,86,2.0,8.0,86,0.00,,,0.29,Wunderground v.1.15,2013-09-12 15:00:00,
2013-09-12 11:05:00,70.9,65.8,29.98,East,86,2.0,8.0,84,0.00,,,0.29,Wunderground v.1.15,2013-09-12 15:05:00,
2013-09-12 11:10:00,70.8,65.4,29.98,ENE,76,3.0,8.0,83,0.00,,,0.29,Wunderground v.1.15,2013-09-12 15:10:00,
2013-09-12 11:15:00,70.8,65.0,29.98,East,86,3.0,8.0,82,0.00,,,0.29,Wunderground v.1.15,2013-09-12 15:15:00,
2013-09-12 11:20:00,70.9,64.8,29.99,East,83,3.0,8.0,81,0.00,,,0.29,Wunderground v.1.15,2013-09-12 15:20:00,
2013-09-12 11:25:00,71.0,64.2,29.99,ENE,75,2.0,8.0,79,0.00,,,0.29,Wunderground v.1.15,2013-09-12 15:25:00,
2013-09-12 11:30:00,71.2,64.4,29.99,East,82,1.0,8.0,79,0.00,,,0.29,Wunderground v.1.15,2013-09-12 15:30:00,
2013-09-12 11:35:00,71.7,64.5,29.99,East,82,1.0,8.0,78,0.00,,,0.29,Wunderground v.1.15,2013-09-12 15:35:00,
2013-09-12 11:45:00,71.3,63.3,29.99,ENE,76,4.0,8.0,76,0.00,,,0.29,Wunderground v.1.15,2013-09-12 15:45:00,
2013-09-12 11:55:00,71.6,61.7,29.99,East,86,3.0,6.0,71,0.00,,,0.29,Wunderground v.1.15,2013-09-12 15:55:00,
2013-09-12 12:00:00,71.3,61.8,29.99,East,82,4.0,4.0,72,0.00,,,0.29,Wunderground v.1.15,2013-09-12 16:00:00,
2013-09-12 12:10:00,71.2,62.9,29.99,ENE,77,2.0,2.0,75,0.00,,,0.29,Wunderground v.1.15,2013-09-12 16:10:00,
2013-09-12 12:15:00,71.5,63.2,29.99,East,86,1.0,2.0,75,0.00,,,0.29,Wunderground v.1.15,2013-09-12 16:15:00,
2013-09-12 12:20:00,72.5,64.1,29.99,East,82,1.0,4.0,75,0.00,,,0.29,Wunderground v.1.15,2013-09-12 16:20:00,
2013-09-12 12:25:00,73.3,64.9,29.98,East,86,2.0,4.0,75,0.00,,,0.29,Wunderground v.1.15,2013-09-12 16:25:00,
2013-09-12 12:30:00,73.9,61.8,29.98,East,84,2.0,3.0,66,0.00,,,0.29,Wunderground v.1.15,2013-09-12 16:30:00,
2013-09-12 12:35:00,74.0,61.0,29.98,East,89,3.0,4.0,64,0.00,,,0.29,Wunderground v.1.15,2013-09-12 16:35:00,
2013-09-12 12:45:00,76.0,62.0,29.98,NE,50,2.0,7.0,62,0.00,,,0.29,Wunderground v.1.15,2013-09-12 16:45:00,
2013-09-12 12:50:00,76.8,61.4,29.98,East,80,2.0,2.0,59,0.00,,,0.29,Wunderground v.1.15,2013-09-12 16:50:00,
2013-09-12 12:55:00,76.4,61.0,29.98,East,87,3.0,3.0,59,0.00,,,0.29,Wunderground v.1.15,2013-09-12 16:55:00,
2013-09-12 13:00:00,76.6,60.7,29.97,East,87,3.0,3.0,58,0.00,,,0.29,Wunderground v.1.15,2013-09-12 17:00:00,
2013-09-12 13:05:00,76.9,60.5,29.97,East,81,3.0,7.0,57,0.00,,,0.29,Wunderground v.1.15,2013-09-12 17:05:00,
2013-09-12 13:10:00,77.0,60.6,29.97,East,81,3.0,3.0,57,0.00,,,0.29,Wunderground v.1.15,2013-09-12 17:10:00,
2013-09-12 13:15:00,77.9,60.9,29.96,NNE,23,2.0,7.0,56,0.00,,,0.29,Wunderground v.1.15,2013-09-12 17:15:00,
2013-09-12 13:20:00,78.9,60.3,29.96,NNE,32,2.0,7.0,53,0.00,,,0.29,Wunderground v.1.15,2013-09-12 17:20:00,
2013-09-12 13:30:00,79.7,58.3,29.96,NE,44,4.0,7.0,48,0.00,,,0.29,Wunderground v.1.15,2013-09-12 17:30:00,
2013-09-12 13:35:00,80.0,57.4,29.96,NE,44,3.0,7.0,46,0.00,,,0.29,Wunderground v.1.15,2013-09-12 17:35:00,
2013-09-12 13:40:00,80.0,58.0,29.96,East,89,2.0,2.0,47,0.00,,,0.29,Wunderground v.1.15,2013-09-12 17:40:00,
2013-09-12 13:50:00,80.5,58.4,29.95,East,83,4.0,4.0,47,0.00,,,0.29,Wunderground v.1.15,2013-09-12 17:50:00,
2013-09-12 13:55:00,80.8,58.7,29.95,NE,46,4.0,7.0,47,0.00,,,0.29,Wunderground v.1.15,2013-09-12 17:55:00,
2013-09-12 14:00:00,80.7,56.8,29.94,NNW,332,5.0,7.0,44,0.00,,,0.29,Wunderground v.1.15,2013-09-12 18:00:00,
2013-09-12 14:10:00,80.5,55.9,29.94,NNW,342,6.0,6.0,43,0.00,,,0.29,Wunderground v.1.15,2013-09-12 18:10:00,
2013-09-12 14:15:00,81.2,55.9,29.94,NNE,18,6.0,7.0,42,0.00,,,0.29,Wunderground v.1.15,2013-09-12 18:15:00,
2013-09-12 14:20:00,81.3,56.0,29.93,WNW,302,6.0,9.0,42,0.00,,,0.29,Wunderground v.1.15,2013-09-12 18:20:00,
2013-09-12 14:25:00,81.0,55.7,29.93,NE,52,6.0,10.0,42,0.00,,,0.29,Wunderground v.1.15,2013-09-12 18:25:00,
2013-09-12 14:35:00,81.1,55.8,29.93,ENE,60,5.0,8.0,42,0.00,,,0.29,Wunderground v.1.15,2013-09-12 18:35:00,
2013-09-12 14:40:00,81.1,55.2,29.93,NE,44,5.0,8.0,41,0.00,,,0.29,Wunderground v.1.15,2013-09-12 18:40:00,
2013-09-12 14:50:00,81.1,55.8,29.92,ENE,75,4.0,4.0,42,0.00,,,0.29,Wunderground v.1.15,2013-09-12 18:50:00,
2013-09-12 14:55:00,81.2,54.6,29.92,East,86,5.0,7.0,40,0.00,,,0.29,Wunderground v.1.15,2013-09-12 18:55:00,
2013-09-12 15:00:00,81.4,54.8,29.92,East,84,5.0,5.0,40,0.00,,,0.29,Wunderground v.1.15,2013-09-12 19:00:00,
2013-09-12 15:10:00,82.2,55.5,29.92,NE,52,2.0,2.0,40,0.00,,,0.29,Wunderground v.1.15,2013-09-12 19:10:00,
2013-09-12 15:15:00,82.0,55.3,29.91,ENE,74,3.0,3.0,40,0.00,,,0.29,Wunderground v.1.15,2013-09-12 19:15:00,
2013-09-12 15:20:00,82.2,55.5,29.91,NNE,30,3.0,8.0,40,0.00,,,0.29,Wunderground v.1.15,2013-09-12 19:20:00,
2013-09-12 15:25:00,82.5,55.7,29.91,ENE,74,4.0,8.0,40,0.00,,,0.29,Wunderground v.1.15,2013-09-12 19:25:00,
2013-09-12 15:30:00,82.8,56.7,29.90,NE,44,6.0,6.0,41,0.00,,,0.29,Wunderground v.1.15,2013-09-12 19:30:00,
2013-09-12 15:35:00,82.4,56.3,29.90,NE,46,7.0,7.0,41,0.00,,,0.29,Wunderground v.1.15,2013-09-12 19:35:00,
2013-09-12 15:45:00,81.6,54.9,29.90,NNW,343,7.0,8.0,40,0.00,,,0.29,Wunderground v.1.15,2013-09-12 19:45:00,
2013-09-12 15:55:00,81.7,55.0,29.89,NE,44,8.0,10.0,40,0.00,,,0.29,Wunderground v.1.15,2013-09-12 19:55:00,
2013-09-12 16:00:00,81.4,55.4,29.89,ENE,75,5.0,5.0,41,0.00,,,0.29,Wunderground v.1.15,2013-09-12 20:00:00,
2013-09-12 16:10:00,81.5,57.5,29.89,NW,315,7.0,7.0,44,0.00,,,0.29,Wunderground v.1.15,2013-09-12 20:10:00,
2013-09-12 16:20:00,80.2,57.5,29.88,WNW,298,7.0,7.0,46,0.00,,,0.29,Wunderground v.1.15,2013-09-12 20:20:00,
2013-09-12 16:25:00,79.8,57.8,29.88,NW,321,6.0,8.0,47,0.00,,,0.29,Wunderground v.1.15,2013-09-12 20:25:00,
2013-09-12 16:30:00,79.5,58.1,29.88,ENE,76,5.0,5.0,48,0.00,,,0.29,Wunderground v.1.15,2013-09-12 20:30:00,
2013-09-12 16:35:00,79.2,59.0,29.87,NW,304,4.0,14.0,50,0.00,,,0.29,Wunderground v.1.15,2013-09-12 20:35:00,
2013-09-12 16:40:00,79.0,58.8,29.88,ENE,67,5.0,5.0,50,0.00,,,0.29,Wunderground v.1.15,2013-09-12 20:40:00,
2013-09-12 16:50:00,78.5,59.4,29.87,NE,39,5.0,14.0,52,0.00,,,0.29,Wunderground v.1.15,2013-09-12 20:50:00,
2013-09-12 16:55:00,78.0,61.0,29.88,East,80,4.0,14.0,56,0.00,,,0.29,Wunderground v.1.15,2013-09-12 20:55:00,
2013-09-12 17:00:00,75.6,60.3,29.88,ENE,70,7.0,14.0,59,0.00,,,0.30,Wunderground v.1.15,2013-09-12 21:00:00,
2013-09-12 17:05:00,71.5,61.6,29.88,East,94,10.0,14.0,71,0.50,,,0.33,Wunderground v.1.15,2013-09-12 21:05:00,
2013-09-12 17:10:00,69.3,59.9,29.90,ENE,70,10.0,10.0,72,1.14,,,0.40,Wunderground v.1.15,2013-09-12 21:10:00,
2013-09-12 17:15:00,68.0,60.5,29.90,East,86,8.0,14.0,77,1.36,,,0.48,Wunderground v.1.15,2013-09-12 21:15:00,
2013-09-12 17:25:00,66.8,61.5,29.89,East,80,2.0,14.0,83,0.17,,,0.63,Wunderground v.1.15,2013-09-12 21:25:00,
2013-09-12 17:30:00,67.3,62.3,29.89,East,87,2.0,14.0,84,0.08,,,0.63,Wunderground v.1.15,2013-09-12 21:30:00,
2013-09-12 17:35:00,67.7,64.0,29.88,East,87,2.0,14.0,88,0.05,,,0.63,Wunderground v.1.15,2013-09-12 21:35:00,
2013-09-12 17:40:00,68.7,64.7,29.88,East,88,2.0,2.0,87,0.00,,,0.63,Wunderground v.1.15,2013-09-12 21:40:00,
2013-09-12 17:45:00,69.5,65.5,29.88,East,87,2.0,14.0,87,0.00,,,0.63,Wunderground v.1.15,2013-09-12 21:45:00,
2013-09-12 17:55:00,71.3,65.2,29.89,East,91,3.0,14.0,81,0.00,,,0.63,Wunderground v.1.15,2013-09-12 21:55:00,
2013-09-12 18:05:00,72.7,65.1,29.89,East,91,1.0,2.0,77,0.00,,,0.63,Wunderground v.1.15,2013-09-12 22:05:00,
2013-09-12 18:10:00,73.3,64.9,29.89,ENE,75,2.0,3.0,75,0.00,,,0.63,Wunderground v.1.15,2013-09-12 22:10:00,
2013-09-12 18:15:00,73.9,65.5,29.89,East,86,3.0,3.0,75,0.00,,,0.63,Wunderground v.1.15,2013-09-12 22:15:00,
2013-09-12 18:20:00,74.2,61.7,29.89,ENE,76,2.0,2.0,65,0.00,,,0.63,Wunderground v.1.15,2013-09-12 22:20:00,
2013-09-12 18:25:00,74.5,61.5,29.89,East,82,2.0,2.0,64,0.00,,,0.63,Wunderground v.1.15,2013-09-12 22:25:00,
2013-09-12 18:35:00,74.6,59.8,29.90,East,88,2.0,3.0,60,0.00,,,0.63,Wunderground v.1.15,2013-09-12 22:35:00,
2013-09-12 18:40:00,74.4,59.6,29.90,ENE,76,3.0,15.0,60,0.00,,,0.63,Wunderground v.1.15,2013-09-12 22:40:00,
2013-09-12 18:45:00,74.2,58.9,29.90,ENE,76,4.0,15.0,59,0.00,,,0.63,Wunderground v.1.15,2013-09-12 22:45:00,
2013-09-12 18:55:00,74.0,58.8,29.91,ENE,67,3.0,15.0,59,0.00,,,0.63,Wunderground v.1.15,2013-09-12 22:55:00,
2013-09-12 19:00:00,73.2,58.0,29.91,ENE,76,5.0,15.0,59,0.00,,,0.63,Wunderground v.1.15,2013-09-12 23:00:00,
2013-09-12 19:10:00,72.0,58.3,29.92,ENE,76,10.0,15.0,62,0.00,,,0.63,Wunderground v.1.15,2013-09-12 23:10:00,
2013-09-12 19:15:00,71.4,57.2,29.93,NE,36,11.0,16.0,61,0.00,,,0.63,Wunderground v.1.15,2013-09-12 23:15:00,
2013-09-12 19:20:00,70.8,56.2,29.93,NE,56,12.0,15.0,60,0.00,,,0.63,Wunderground v.1.15,2013-09-12 23:20:00,
2013-09-12 19:30:00,69.5,54.5,29.94,NNE,16,15.0,15.0,59,0.00,,,0.63,Wunderground v.1.15,2013-09-12 23:30:00,
2013-09-12 19:35:00,68.9,54.9,29.94,NE,42,14.0,21.0,61,0.00,,,0.63,Wunderground v.1.15,2013-09-12 23:35:00,
2013-09-12 19:40:00,68.0,54.9,29.94,ENE,71,17.0,19.0,63,0.00,,,0.63,Wunderground v.1.15,2013-09-12 23:40:00,
2013-09-12 19:45:00,67.5,55.3,29.95,NE,50,18.0,19.0,65,0.00,,,0.63,Wunderground v.1.15,2013-09-12 23:45:00,
2013-09-12 19:55:00,67.2,55.5,29.95,East,94,16.0,20.0,66,0.00,,,0.63,Wunderground v.1.15,2013-09-12 23:55:00,
2013-09-12 20:00:00,66.9,56.0,29.95,ENE,69,13.0,13.0,68,0.00,,,0.63,Wunderground v.1.15,2013-09-13 00:00:00,
2013-09-12 20:10:00,66.4,56.3,29.96,NE,56,7.0,7.0,70,0.00,,,0.63,Wunderground v.1.15,2013-09-13 00:10:00,
2013-09-12 20:15:00,66.2,56.1,29.96,East,86,7.0,7.0,70,0.00,,,0.63,Wunderground v.1.15,2013-09-13 00:15:00,
2013-09-12 20:20:00,66.1,55.6,29.97,East,86,7.0,13.0,69,0.00,,,0.63,Wunderground v.1.15,2013-09-13 00:20:00,
2013-09-12 20:30:00,66.2,54.1,29.97,East,85,10.0,10.0,65,0.00,,,0.63,Wunderground v.1.15,2013-09-13 00:30:00,
2013-09-12 20:35:00,66.2,54.1,29.97,East,82,10.0,25.0,65,0.00,,,0.63,Wunderground v.1.15,2013-09-13 00:35:00,
2013-09-12 20:40:00,66.0,54.3,29.98,ENE,63,8.0,8.0,66,0.00,,,0.63,Wunderground v.1.15,2013-09-13 00:40:00,
2013-09-12 20:50:00,65.3,54.1,29.98,East,82,7.0,25.0,67,0.00,,,0.63,Wunderground v.1.15,2013-09-13 00:50:00,
2013-09-12 20:55:00,65.2,54.4,29.99,East,86,9.0,25.0,68,0.00,,,0.63,Wunderground v.1.15,2013-09-13 00:55:00,
2013-09-12 21:00:00,65.1,54.7,29.99,NE,42,9.0,9.0,69,0.00,,,0.63,Wunderground v.1.15,2013-09-13 01:00:00,
2013-09-12 21:10:00,64.6,54.6,29.99,ENE,60,8.0,25.0,70,0.00,,,0.63,Wunderground v.1.15,2013-09-13 01:10:00,
2013-09-12 21:15:00,64.4,55.2,29.99,ENE,68,8.0,25.0,72,0.00,,,0.63,Wunderground v.1.15,2013-09-13 01:15:00,
2013-09-12 21:20:00,64.2,55.0,30.00,East,84,8.0,25.0,72,0.00,,,0.63,Wunderground v.1.15,2013-09-13 01:20:00,
2013-09-12 21:30:00,64.1,55.3,30.00,ENE,59,8.0,8.0,73,0.00,,,0.63,Wunderground v.1.15,2013-09-13 01:30:00,
2013-09-12 21:35:00,63.7,54.9,30.00,NE,55,5.0,25.0,73,0.00,,,0.63,Wunderground v.1.15,2013-09-13 01:35:00,
2013-09-12 21:40:00,63.3,55.2,30.00,ENE,75,5.0,25.0,75,0.00,,,0.63,Wunderground v.1.15,2013-09-13 01:40:00,
2013-09-12 21:45:00,63.0,54.9,30.00,East,91,6.0,25.0,75,0.00,,,0.63,Wunderground v.1.15,2013-09-13 01:45:00,
2013-09-12 21:55:00,62.8,54.8,30.00,ENE,58,6.0,25.0,75,0.00,,,0.63,Wunderground v.1.15,2013-09-13 01:55:00,
2013-09-12 22:00:00,62.7,54.7,30.00,ENE,72,6.0,8.0,75,0.00,,,0.63,Wunderground v.1.15,2013-09-13 02:00:00,
2013-09-12 22:10:00,62.5,54.5,30.01,ENE,76,7.0,7.0,75,0.00,,,0.63,Wunderground v.1.15,2013-09-13 02:10:00,
2013-09-12 22:15:00,62.2,54.2,30.01,East,82,6.0,7.0,75,0.00,,,0.63,Wunderground v.1.15,2013-09-13 02:15:00,
2013-09-12 22:20:00,62.0,54.0,30.01,ENE,63,6.0,6.0,75,0.00,,,0.63,Wunderground v.1.15,2013-09-13 02:20:00,
2013-09-12 22:25:00,61.8,53.8,30.01,ENE,69,5.0,6.0,75,0.00,,,0.63,Wunderground v.1.15,2013-09-13 02:25:00,
2013-09-12 22:35:00,61.4,54.1,30.02,East,87,6.0,6.0,77,0.00,,,0.63,Wunderground v.1.15,2013-09-13 02:35:00,
2013-09-12 22:40:00,61.2,53.9,30.02,ENE,63,6.0,6.0,77,0.00,,,0.63,Wunderground v.1.15,2013-09-13 02:40:00,
2013-09-12 22:45:00,61.0,53.7,30.02,East,83,6.0,16.0,77,0.00,,,0.63,Wunderground v.1.15,2013-09-13 02:45:00,
2013-09-12 22:55:00,60.7,53.8,30.02,ENE,65,5.0,16.0,78,0.00,,,0.63,Wunderground v.1.15,2013-09-13 02:55:00,
2013-09-12 23:00:00,60.6,53.7,30.02,East,84,5.0,16.0,78,0.00,,,0.63,Wunderground v.1.15,2013-09-13 03:00:00,
2013-09-12 23:05:00,60.3,53.4,30.02,East,79,5.0,16.0,78,0.00,,,0.63,Wunderground v.1.15,2013-09-13 03:05:00,
2013-09-12 23:15:00,59.9,53.4,30.02,ENE,59,5.0,5.0,79,0.00,,,0.63,Wunderground v.1.15,2013-09-13 03:15:00,
2013-09-12 23:20:00,59.8,53.3,30.02,East,84,6.0,16.0,79,0.00,,,0.63,Wunderground v.1.15,2013-09-13 03:20:00,
2013-09-12 23:25:00,59.8,53.3,30.02,East,84,7.0,16.0,79,0.00,,,0.63,Wunderground v.1.15,2013-09-13 03:25:00,
2013-09-12 23:35:00,59.6,53.4,30.03,ENE,72,6.0,16.0,80,0.00,,,0.63,Wunderground v.1.15,2013-09-13 03:35:00,
2013-09-12 23:40:00,59.6,53.4,30.03,ENE,75,6.0,6.0,80,0.00,,,0.63,Wunderground v.1.15,2013-09-13 03:40:00,
2013-09-12 23:45:00,59.4,53.2,30.03,NE,56,5.0,16.0,80,0.00,,,0.63,Wunderground v.1.15,2013-09-13 03:45:00,
2013-09-12 23:55:00,59.1,53.3,30.03,ENE,74,4.0,6.0,81,0.00,,,0.63,Wunderground v.1.15,2013-09-13 03:55:00,